Regional Weather Roundup
Issued by NWS

Home | Current Version | Previous Version | Graphics & Text | Print | Product List | Glossary On
Versions: 1 2 3 4 5 6 7 8 9 10 11 12 13 14 15 16 17 18 19 20 21 22 23 24 25 26 27 28 29 30 31 32 33 34 35 36 37 38 39 40 41 42 43 44 45 46 47 48 49 50
000
ASUS43 KDTX 231701
RWRMI
MICHIGAN HOURLY REGIONAL WEATHER ROUNDUP
NATIONAL WEATHER SERVICE DETROIT/PONTIAC MI
100 PM EDT SUN APR 23 2017

NOTE: "FAIR" INDICATES FEW OR NO CLOUDS BELOW 12,000 FEET WITH NO
SIGNIFICANT WEATHER AND/OR OBSTRUCTION TO VISIBILITY.

MIZ047>049-052>055-059>063-066>070-074>076-081>083-231800-
SOUTHEAST LOWER MICHIGAN

CITY           SKY/WX    TMP DP  RH WIND       PRES   REMARKS
ADRIAN         SUNNY     62  33  33 CALM      30.10F
ALMA           SUNNY     65  30  26 W14G22    30.09F
ANN ARBOR      SUNNY     64  30  27 CALM      30.09F
BAD AXE        SUNNY     64  34  32 SW8       30.08F
CARO           SUNNY     65  34  32 W7G17     30.08F
DETROIT CITY   SUNNY     62  32  32 CALM      30.10F
DETROIT        MOSUNNY   64  34  32 VRB3      30.11F
FLINT          SUNNY     65  35  33 W15       30.09F
GROSSE ILE     SUNNY     55  32  42 S7        30.10F
HILLSDALE      SUNNY     63  32  31 CALM      30.09F
HOWELL         SUNNY     64  27  24 N3        30.09F

CITY           SKY/WX    TMP DP  RH WIND       PRES   REMARKS
JACKSON        SUNNY     66  29  24 N8        30.10F
LAMBERTVILLE   SUNNY     61  31  32 S7        30.09F
LANSING        SUNNY     65  26  23 MISG      30.10F
LAPEER         FAIR      65  31  27 SW3       30.09F
MASON          SUNNY     64  32  30 W5        30.10F
MONROE         SUNNY     61  31  32 CALM      30.09F
MT. CLEMENS    SUNNY     60  39  45 SE7       30.09F
PONTIAC        MOSUNNY   64  30  27 VRB5      30.08F
PORT HOPE        N/A     64  35  34 VRB7G18   30.05F
PORT HURON     SUNNY     63  32  31 NW10      30.09F
TRI CITIES     SUNNY     65  35  33 SW12      30.08F
MIDLAND        FAIR      68  28  22 W7G18     30.06F
TROY           SUNNY     65  28  25 SW6       30.11F
SAGINAW HB     SUNNY     64  30  27 W7        30.07F
$$
MIZ043>046-050>051-056>058-064>065-071>073-077>080-231800-
SOUTHWEST LOWER MICHIGAN

CITY           SKY/WX    TMP DP  RH WIND       PRES   REMARKS
BATTLE CREEK   SUNNY     64  26  23 CALM      30.10F
BENTON HARBOR  SUNNY     59  28  30 VRB5      30.13S
BIG RAPIDS     SUNNY     65  29  26 W12G17    30.07F
COLDWATER      SUNNY     64  31  28 CALM      30.10F
FREMONT        FAIR      65  26  23 W13       30.09F
HOLLAND        SUNNY     62  34  35 W8        30.12F
GRAND RAPIDS   MOSUNNY   65  34  31 W10       30.10F
IONIA          FAIR      65  30  27 W12       30.09F
KALAMAZOO      SUNNY     66  27  23 N7        30.11F
LUDINGTON      SUNNY     53  38  57 W8        30.09F
MARSHALL       SUNNY     67  31  26 W5        30.09F
MOUNT PLEASANT SUNNY     65  30  26 W9        30.06F
MUSKEGON       SUNNY     60  28  29 SW9       30.11F
SOUTH HAVEN    SUNNY     58  28  32 W7        30.12F
$$
MIZ016>042-231800-
NORTHERN LOWER MICHIGAN

CITY           SKY/WX    TMP DP  RH WIND       PRES   REMARKS
ALPENA         MOSUNNY   56  40  55 N16       30.10F
BEAVER ISLAND  MOSUNNY   40  31  71 NW9G17    30.17F WCI  34
BELLAIRE       CLOUDY    49  36  59 N9        30.12S
CADILLAC       SUNNY     64  33  31 W15G21    30.06F
CHARLEVOIX     CLOUDY    40  35  81 N8        30.19S WCI  35
FRANKFORT      SUNNY     48  35  62 N16G23    30.11F
GAYLORD        MOSUNNY   55  37  50 VRB6      30.08S
GRAYLING       SUNNY     61  36  39 W12G18    30.07F
HARBOR SPRINGS CLOUDY    46  35  66 N7        30.14S
HOUGHTON LAKE  SUNNY     64  34  32 W12       30.06F
MANISTEE       SUNNY     52  40  63 NW13      30.09F
OSCODA         SUNNY     54  37  54 E13       30.08R
PELLSTON       CLOUDY    46  34  62 NW8       30.14S
ROGERS CITY    CLOUDY    45  36  71 N13G18    30.14R
TRAVERSE CITY  MOSUNNY   48  34  58 N14       30.13S
$$
MIZ007>008-015-231800-
EASTERN UPPER MICHIGAN

CITY           SKY/WX    TMP DP  RH WIND       PRES   REMARKS
KINROSS        CLOUDY    37  31  78 NW12      30.14R WCI  29
MACKINAC ISLAN CLOUDY    41  34  75 NW8       30.14S
NEWBERRY       CLOUDY    32  29  86 NW12G17   30.16S WCI  23
S. S. MARIE    CLOUDY    37  33  85 W10       30.13R WCI  30
MUNISING         N/A     33  26  75 N21       30.21S WCI  21
$$
MIZ004>006-011>014-085-231800-
CENTRAL UPPER MICHIGAN

CITY           SKY/WX    TMP DP  RH WIND       PRES   REMARKS
MANISTIQUE     CLOUDY    37  27  69 N14G21    30.17S WCI  28
ESCANABA       LGT RAIN  38  31  76 NE12      30.19S WCI  30
MENOMINEE      MOSUNNY   44  33  65 E15       30.18S
SAWYER-GWINN   LGT SNOW  30  28  93 N20       30.19  WCI  18
$$
MIZ001>003-009>011-084-231800-
WESTERN UPPER MICHIGAN

CITY           SKY/WX    TMP DP  RH WIND       PRES   REMARKS
IRON MOUNTAIN  CLOUDY    38  28  67 N6        30.16S WCI  33
HOUGHTON       CLOUDY    33  24  69 E5        30.20F WCI  29
COPPER HARBOR    N/A     33  23  66 NE13      30.24R WCI  24
IRONWOOD       LGT RAIN  36  31  82 NE7       30.18S WCI  30
$$

ABBREVIATIONS USED IN REMARKS
   TC - TEMPERATURE IN CELSIUS
  WCI - WIND CHILL INDEX
   HX - HEAT INDEX
  VSB - VISIBILITY




USA.gov is the U.S. government's official web portal to all federal, state and local government web resources and services.